Location: *
(46.3500°N, 10.9000°E)
Time: 09:29:49
(UTC+00:00)

SJ-6B - Pass Details

Date: 09 April 2020
Orbit: 509 x 582 km, 97.6° (Epoch: 24 May)

Event Time Altitude Azimuth Distance (km) Brightness Sun altitude
Exits shadow 18:38:27 - 155° (SSE) 2,692 5.9 -7.8°
Reaches altitude 10° 18:40:24 10° 151° (SSE) 1,896 5.1 -8.1°
Maximum altitude 18:44:26 57° 73° (ENE) 693 3.1 -8.7°
Drops below altitude 10° 18:48:30 10° 355° (N) 1,910 5.9 -9.4°
Sets 18:50:41 0° 351° (N) 2,810 6.9 -9.7°
